www.pogodaiklimat.ru

Погода и климат >> Архив погоды >> Аргентина >> Пилар


ПОГОДА в Пиларе

  • Прогноз погоды в Пиларе
  • Монитор погоды в Пиларе

АРХИВ ПОГОДЫ в Пиларе

Время (UTC), дата Ветер
(напр.,м/с)
 
Видим.   Явления Облачность Т
(С)
Тd
(С)
f
(%)
Тe
(С)
Тes
(С)
Комфортность P
(гПа)
Po
(гПа)
Тmin
(С)
Tmax
(С)
R
(мм)
R24
(мм)
S
(см)
06 10.07 Ю 2 10 км 4/0
[Ci]
+6.7 +4.4 85 +5 +5 1018.1 978.0
09 10.07 ЮЗ 2 10 км 4/0
[Ci]
+5.8 +3.4 85 +4 +4 1018.2 977.8
12 10.07 Ю 1 10 км ясно +5.7 +3.8 88 +4 +5 1019.3 978.5 +4.9 +10.9
15 10.07 ЮВ 1 8000 м мгла ясно +17.0 +9.2 60 +18 +26 1017.2 977.2
18 10.07 СВ 1 10 км мгла ясно +22.3 +9.9 45 +24 +31 комфорт 1013.9 974.2
21 10.07 В 1 8000 м мгла 6/0
[Cs]
+19.2 +11.0 59 +21 +21 комфорт 1014.2 974.2
00 11.07 В 1 10 км мгла 8/0
[Cs]
+13.6 +9.8 78 +15 +15 1015.5 975.0 +5.7 +22.7
03 11.07 ЮЗ 2 10 км 3/0
[Ci fib]
+10.1 +8.1 87 +9 +9 1016.0 976.1
06 11.07 штиль 0 10 км 9/0
[Ac As]
+10.7 +7.8 82 +10 +10 1014.5 975.0
09 11.07 ЮЗ 1 10 км 5/0
[Ac As Cs]
+17.1 -11.8 13 +19 +19 1012.6 973.4
12 11.07 ЮЗ 1 10 км 10/0
[Ac As]
+10.3 +8.5 89 +10 +10 1013.8 973.8 +8.0 +13.6
15 11.07 Ю 2 10 км 10/8 1000 м
[Sc Ac As]
+15.7 +10.0 69 +16 +16 1012.9 973.0
18 11.07 В 1 10 км 5/0
[Ac As Cs]
+20.9 +12.5 59 +24 +30 комфорт 1009.1 969.8
21 11.07 ЮВ 2 10 км 8/0
[Ac As]
+20.0 +13.4 66 +23 +23 комфорт 1009.3 969.7
00 12.07 Ю 2 10 км 10/0
[As trans]
+14.5 +12.1 86 +14 +14 1012.5 972.6 +10.3 +22.0
03 12.07 ЮЗ 1 10 км 8/0
[Ac As]
+11.8 +10.7 93 +12 +12 1014.8 975.0
06 12.07 Ю 4 10 км 10/10 300 м
[St]
+12.3 +11.4 94 +10 +10 1014.1 974.6
09 12.07 Ю 4 10 км 10/10 300 м
[St]
+11.3 +9.9 91 +9 +9 1014.9 975.3
12 12.07 Ю 4 4000 м дымка 8/1 600 м
[Sc Ac und Cs]
+10.5 +8.9 90 +8 +8 1018.2 978.1 +10.3 +14.5
15 12.07 Ю 6 10 км 8/8 600 м
[Sc]
+13.8 +8.3 69 +12 +12 1019.6 979.4
18 12.07 Ю 4 10 км 1/1 600 м
[Sc]
+16.8 +7.8 55 +16 +20 1017.1 977.3
21 12.07 ЮВ 3 10 км 3/0
[Ac und Cc]
+15.6 +7.2 57 +15 +15 1017.5 977.4
00 13.07 Ю 2 10 км 10/0
[Ac As]
+12.9 +6.7 66 +13 +13 1019.8 979.4 +10.5 +17.5
03 13.07 Ю 1 10 км 9/3 600 м
[Sc Ac As]
+12.1 +6.7 70 +12 +12 1020.6 980.4
06 13.07 штиль 0 10 км 10/0
[Ac As]
+11.0 +5.9 71 +11 +11 1019.5 979.4
09 13.07 Ю 1 10 км 10/10 600 м
[Sc]
+10.4 +5.4 71 +11 +11 1017.9 977.8
12 13.07 штиль 0 10 км 10/10 600 м
[Sc]
+9.5 +6.7 83 +9 +9 1019.5 979.0 +9.1 +12.9
15 13.07 СЗ 3 10 км 5/5 900 м
[Sc]
+14.5 +8.0 65 +14 +17 1018.8 978.8
18 13.07 В 1 10 км 4/4 900 м
[Sc]
+17.7 +8.2 54 +19 +23 1016.0 976.2
21 13.07 СВ 2 10 км 5/0
[Ac cast Ci]
+16.7 +8.4 58 +17 +17 1016.6 976.6
00 14.07 В 2 10 км ясно +12.1 +7.4 73 +11 +11 1019.3 978.9 +9.5 +18.0
03 14.07 штиль 0 10 км 4/0
[Ac cast]
+8.5 +6.8 89 +8 +8 1021.5 981.0
06 14.07 штиль 0 10 км 4/0
[Cs]
+6.9 +6.0 94 +6 +6 1020.5 980.2
09 14.07 штиль 0 10 км 10/0
[Ac As]
+5.8 +4.9 94 +5 +5 1019.3 979.0
12 14.07 штиль 0 5000 м в посл. час туман туман 6/0
[Ac und]
+6.2 +4.8 91 +5 +6 1020.3 979.6 +4.8 +12.1
15 14.07 С 2 10 км 8/0
[Ac und]
+14.1 +8.8 70 +14 +17 1019.9 979.4
18 14.07 С 3 10 км 6/0
[Ac und]
+17.5 +6.5 48 +18 +20 1017.1 977.0
21 14.07 С 2 10 км 1/0
[Ci]
+15.7 +7.1 57 +16 +16 1017.9 977.4
00 15.07 В 1 10 км 1/0
[Ci]
+10.5 +7.8 83 +11 +11 1019.8 979.0 +6.0 +18.0
03 15.07 штиль 0 10 км ясно +8.5 +7.5 93 +8 +8 1020.4 979.8
06 15.07 штиль 0 10 км ясно +5.8 +5.1 95 +5 +5 1021.4 980.6
09 15.07 штиль 0 10 км ясно +6.0 +4.9 93 +5 +5 1022.1 981.3
12 15.07 Ю 5 10 км 3/0
[Ac und]
+10.0 +5.7 75 +7 +7 1024.7 984.0 +5.0 +10.5
15 15.07 Ю 6 10 км ясно +14.7 +1.5 41 +13 +16 1026.0 985.4
18 15.07 ЮВ 3 10 км ясно +17.2 +2.7 38 +17 +22 1024.2 983.7
21 15.07 В 2 10 км ясно +16.1 +3.7 44 +17 +17 1024.0 983.4
00 16.07 штиль 0 10 км ясно +8.6 +4.3 74 +8 +8 1025.9 985.0 +8.6 +17.5
03 16.07 штиль 0 10 км ясно +5.5 +2.3 80 +5 +5 1026.1 985.3
06 16.07 З 1 10 км ясно +4.2 +1.9 85 +4 +4 1024.6 984.0
09 16.07 штиль 0 10 км ясно +2.6 +1.3 91 +1 +1 1023.2 982.4
12 16.07 С 2 10 км ясно +7.2 +2.4 72 +5 +6 1024.3 983.3 +2.2 +8.6
15 16.07 С 8 10 км ясно +15.7 +6.1 53 +14 +16 1022.9 982.2
18 16.07 С 7 10 км ясно +18.2 +5.9 44 +18 +19 1019.5 979.0
21 16.07 С 4 10 км 1/1 600 м
[Sc]
+16.5 +7.4 55 +16 +16 1019.9 979.3
00 17.07 С 5 10 км ясно +12.0 +8.4 79 +10 +10 1020.6 980.0 +7.2 +18.6
03 17.07 С 4 10 км ясно +11.0 +8.2 83 +9 +9 1020.8 980.6

 

Местоположение метеостанции Пилар (Аргентина): широта -31.66 долгота -63.88 высота над уровнем моря 338 м.

В архиве по умолчанию представлена погода в Пиларе за последнюю неделю. Архивные данные за месяц целиком и за предыдущие месяцы, начиная с января 2011 года, Вы можете получить, выбрав интересующий диапазон дат из раскрывающегося списка и нажав кнопку "Ввод!".


*Определитесь, кто Вы:
робот инопланетянин человек

Внимание! Время в таблицах - всемирное. Для получения местного времени необходимо прибавить поправку, которая равна -3 ч.

Смотрите также архив погоды в соседних городах и на ближайших метеорологических станциях:

Погода в Кордове (Аргентина) (50 км)
Погода в Вилла Долорес (Аргентина) (122 км)
Погода в Рио-Куарто (Аргентина) (163 км)
Погода в Вилла де Мария дель Рио Секо (Аргентина) (197 км)
Погода в Маркос Хуарес (Аргентина) (200 км)
Погода в Вилья Рейнольдс (Аргентина) (270 км)
Погода в Сересе (Аргентина) (271 км)
Погода в Чамикале (Аргентина) (271 км)
Погода в Лабоулайе (Аргентина) (279 км)
Погода в Санта-Фе (Аргентина) (291 км)

Пояснения к столбцам:

Ветер - указаны скорость ветра в м/с - средняя за 10 мин, порывы в срок и между сроками (в фигурных скобках) и направление, откуда дует ветер: С - северный, СВ - северо-восточный, В - восточный, ЮВ - юго-восточный, Ю - южный, ЮЗ - юго-западный, З - западный, СЗ - северо-западный.
Видимость - горизонтальная дальность видимости в метрах или километрах. При видимости от 1 до 10 км при отсутствии осадков обычно наблюдается дымка, при ухудшении видимости до 1 км и менее - туман. В сухую погоду видимость может ухудшаться дымом, пылью или мглою.
Явления - указаны атмосферные явления, наблюдавшиеся в срок или в последний час перед сроком; фигурными скобками обозначены явления, наблюдавшиеся между сроками (за 1-3 часа до срока); квадратными скобками обозначены град или гололедные отложения с указанием их диаметра в мм.
Облачность - указаны через наклонную черту общая и нижняя облачность в баллах и высота нижней границы облаков в метрах; квадратными скобками обозначены формы облаков: Ci - перистые, Cs - перисто-слоистые, Cc - перисто-кучевые, Ac - высококучевые, As - высокослоистые, Sc - слоисто-кучевые, Ns - слоисто-дождевые, Cu - кучевые, Cb - кучево-дождевые. Подробнее классификацию облаков см. в Атласе облаков (PDF).
T - Температура воздуха - температура, измеренная на высоте 2 м над землей.
Td - Температура точки росы - температура, при понижении до которой содержащийся в воздухе водяной пар достигнет насыщения.
f - Относительная влажность воздуха - влажноcть воздуха, измеренная на высоте 2 м над землей.
Te - Эффективная температура - температура, которую ощущает одетый по сезону человек в тени. Характеристика душности погоды. При расчете учитывается влияние влажности воздуха и скорости ветра на теплоощущения человека.
Tes - Эффективная температура на солнце - температура, которую ощущает человек, с поправкой на солнечный нагрев. Характеристика знойности погоды. Зависит от высоты солнца над горизонтом, облачности и скорости ветра. Ночью, в пасмурную погоду, а также при ветре 12 м/с и более поправка равна нулю.
P - Атмосферное давление - приведенное к уровню моря атмосферное давление.
Po - Атмосферное давление - измеренное на уровне метеостанции атмосферное давление.
Tmin - Минимальная температура - минимум температуры воздуха на высоте 2 м над землей.
Tmax - Максимальная температура - максимум температуры воздуха на высоте 2 м над землей.
R - Количество осадков - Количество выпавших осадков за период времени, мм. При наведении курсора мыши на число - период времени, за который выпало указанное количество осадков.
R24 - Количество осадков - Количество выпавших осадков за 24 часа, мм.
S - Снежный покров - Высота снежного покрова, см. При наведении курсора мыши на число - состояние снежного покрова и степень покрытия местности в баллах.